This is the latest recevied weather packets stored in our database for station/object KD8DLP-13. If no packets are shown the sender has not sent any weather packets the latest 10 day(s).
| Time | Temp. | Humidity | Pressure | Rain* | Wind** | Luminosity | Snow |
|---|---|---|---|---|---|---|---|
| 1777506524 | 7.22° C | 90% | 1014.4 hPa | 0 mm | - | 16 W/m² | - |
| 1777506218 | 7.22° C | 90% | 1014.5 hPa | 0 mm | - | 17 W/m² | - |
| 1777505916 | 7.22° C | 90% | 1014.5 hPa | 0 mm | - | 16 W/m² | - |
| 1777505611 | 7.22° C | 90% | 1014.4 hPa | 0 mm | - | 17 W/m² | - |
| 1777505309 | 7.22° C | 90% | 1014.4 hPa | 0 mm | - | 20 W/m² | - |
| 1777505006 | 7.22° C | 90% | 1014.4 hPa | 0 mm | - | 18 W/m² | - |
| 1777504702 | 7.22° C | 90% | 1014.4 hPa | 0 mm | - | 18 W/m² | - |
| 1777504400 | 7.22° C | 90% | 1014.4 hPa | 0 mm | - | 18 W/m² | - |
| 1777504095 | 7.22° C | 90% | 1014.4 hPa | 0 mm | - | 20 W/m² | - |
| 1777503790 | 7.22° C | 90% | 1014.2 hPa | 0 mm | - | 21 W/m² | - |
| 1777503487 | 7.78° C | 91% | 1014.5 hPa | 0 mm | - | 21 W/m² | - |
| 1777503183 | 7.78° C | 90% | 1014.3 hPa | 0 mm | - | 21 W/m² | - |
| 1777502880 | 7.78° C | 90% | 1014.1 hPa | 0 mm | - | 18 W/m² | - |
| 1777502578 | 7.78° C | 90% | 1014.1 hPa | 0 mm | - | 20 W/m² | - |
| 1777502275 | 7.78° C | 91% | 1014.2 hPa | 0 mm | - | 22 W/m² | - |
| 1777501972 | 7.78° C | 91% | 1014.3 hPa | 0 mm | - | 28 W/m² | - |
| 1777501669 | 7.78° C | 91% | 1014.3 hPa | 0 mm | - | 37 W/m² | - |
| 1777501365 | 7.78° C | 91% | 1014.2 hPa | 0 mm | - | 38 W/m² | - |
| 1777501063 | 7.78° C | 91% | 1014.2 hPa | 0 mm | - | 36 W/m² | - |
| 1777500761 | 8.33° C | 91% | 1014.1 hPa | 0 mm | - | 34 W/m² | - |
| 1777500458 | 8.33° C | 92% | 1014.3 hPa | 0 mm | - | 28 W/m² | - |
| 1777500154 | 8.33° C | 92% | 1014.1 hPa | 0 mm | - | 31 W/m² | - |
| 1777499852 | 8.33° C | 91% | 1014.1 hPa | 0 mm | - | 44 W/m² | - |
| 1777499547 | 8.33° C | 92% | 1013.9 hPa | 0 mm | - | 63 W/m² | - |
| 1777499246 | 8.33° C | 91% | 1013.9 hPa | 0 mm | - | 47 W/m² | - |
* Rain latest hour (hover to see other rain measurements)
** Current wind speed in m/s (hover to see current wind gust speed)